Location: GMARS
(34.2910°N, 116.3838°W)
Time: 12:29:41
(UTC-08:00)

Envisat - Pass Details

Date: 30 October 2019
Orbit: 764 x 766 km, 98.1° (Epoch: 20 November)

Event Time Altitude Azimuth Distance (km) Brightness Sun altitude
Rises 06:26:28 0° 34° (NNE) 3,232 6.6 -8.3°
Reaches altitude 10° 06:29:39 10° 55° (NE) 2,300 6.2 -7.6°
Maximum altitude 06:32:46 16° 93° (E) 1,895 6.5 -7.0°
Drops below altitude 10° 06:35:53 10° 131° (SE) 2,291 6.6 -6.4°
Sets 06:39:02 0° 152° (SSE) 3,212 6.9 -5.7°
